Hillsdale, MI

4:41 PM EDT on August 28, 2016 (GMT -0400)
Hillsdale Municipal

Weather History for KJYM - October, 2013

Change the Weather History Date:

Thursday, October 3, 2013

  Actual Average Record
Temperature  
Mean Temperature 66 °F -  
Max Temperature 76 °F 68 °F 88 °F (1953)
Min Temperature 56 °F 42 °F 22 °F (1974)
Cooling Degree Days 1    
Growing Degree Days 16 (Base 50)    
Moisture  
Dew Point 62 °F    
Average Humidity 91    
Maximum Humidity 100    
Minimum Humidity 73    
Precipitation  
Precipitation 0.00 in - - ()
Sea Level Pressure  
Sea Level Pressure 30.02 in    
Wind  
Wind Speed 2 mph (SSW)    
Max Wind Speed 8 mph    
Max Gust Speed -    
Visibility 8 miles    
Events Rain    
Averages and records for this station are not official NWS values.
T = Trace of Precipitation, MM = Missing Value Source: NWS Daily Summary

Daily Weather History Graph

Daily Weather History Graph

Search for Another Location

Airport or City:

Trip Planner

Search our weather history database for the weather conditions in past years. The results will help you decide how hot, cold, wet, or windy it might be!

Date:

Astronomy

Oct. 03, 2013 Rise Set
Actual Time 7:37 AM EDT 7:16 PM EDT
Civil Twilight 7:09 AM EDT 7:43 PM EDT
Nautical Twilight 6:37 AM EDT 8:16 PM EDT
Astronomical Twilight 6:04 AM EDT 8:48 PM EDT
Moon 6:09 AM EDT (10/3) 6:24 PM EDT (10/3)
Length of Visible Light 12h 34m
Length of Day
11h 38m
Waning Crescent, 2% of the Moon is Illuminated
Oct 3
Waning Crescent
Oct 4
New
Oct 11
First Quarter
Oct 18
Full
Oct 26
Last Quarter

Hourly Weather History & Observations

Time (EDT) Temp. Dew Point Humidity Pressure Visibility Wind Dir Wind Speed Gust Speed Precip Events Conditions
12:14 AM 57.9 °F 54.0 °F 87% 30.07 in 10.0 mi Calm Calm - N/A   Clear
12:35 AM 57.9 °F 53.8 °F 86% 30.07 in 10.0 mi Calm Calm - N/A   Clear
12:55 AM 57.0 °F 54.3 °F 91% 30.06 in 10.0 mi East 3.5 mph - N/A   Clear
1:14 AM 57.9 °F 54.0 °F 87% 30.05 in 10.0 mi ESE 3.5 mph - N/A   Clear
1:35 AM 57.9 °F 54.1 °F 87% 30.05 in 10.0 mi Calm Calm - N/A   Clear
1:54 AM 58.3 °F 54.5 °F 87% 30.05 in 10.0 mi ESE 3.5 mph - N/A   Clear
2:14 AM 61.2 °F 53.8 °F 77% 30.05 in 10.0 mi Calm Calm - N/A   Clear
2:35 AM 61.2 °F 54.3 °F 78% 30.05 in 10.0 mi ESE 3.5 mph - N/A   Clear
2:54 AM 59.2 °F 54.9 °F 86% 30.05 in 10.0 mi Calm Calm - N/A   Clear
3:15 AM 59.7 °F 55.0 °F 84% 30.04 in 7.0 mi Calm Calm - N/A   Clear
3:34 AM 58.6 °F 55.4 °F 89% 30.04 in 10.0 mi Calm Calm - N/A   Clear
3:54 AM 60.3 °F 55.4 °F 84% 30.03 in 7.0 mi SE 3.5 mph - N/A   Clear
4:15 AM 58.6 °F 55.6 °F 90% 30.04 in 10.0 mi Calm Calm - N/A   Clear
4:34 AM 59.2 °F 55.9 °F 89% 30.04 in 10.0 mi Calm Calm - N/A   Clear
4:54 AM 57.2 °F 55.8 °F 95% 30.04 in 10.0 mi Calm Calm - N/A   Clear
5:15 AM 57.6 °F 55.8 °F 94% 30.04 in 10.0 mi Calm Calm - N/A   Clear
5:34 AM 56.1 °F 55.2 °F 97% 30.04 in 10.0 mi Calm Calm - N/A   Scattered Clouds
5:54 AM 58.8 °F 56.8 °F 93% 30.04 in 10.0 mi Calm Calm - N/A   Scattered Clouds
6:15 AM 58.8 °F 56.5 °F 92% 30.04 in 10.0 mi Calm Calm - N/A   Clear
6:34 AM 58.6 °F 56.8 °F 94% 30.04 in 7.0 mi Calm Calm - N/A   Clear
6:54 AM 59.4 °F 57.0 °F 92% 30.03 in 7.0 mi Calm Calm - N/A   Clear
7:15 AM 58.3 °F 56.8 °F 95% 30.04 in 7.0 mi Calm Calm - N/A   Clear
7:34 AM 56.8 °F 56.1 °F 97% 30.04 in 7.0 mi Calm Calm - N/A   Clear
7:54 AM 57.6 °F 56.5 °F 96% 30.04 in 5.0 mi Calm Calm - N/A   Clear
8:15 AM 58.5 °F 57.4 °F 96% 30.04 in 5.0 mi Calm Calm - N/A   Mostly Cloudy
8:34 AM 60.3 °F 58.6 °F 94% 30.04 in 5.0 mi Calm Calm - N/A   Overcast
8:55 AM 62.1 °F 60.4 °F 94% 30.04 in 4.0 mi South 3.5 mph - N/A   Overcast
9:14 AM 62.8 °F 61.2 °F 94% 30.05 in 3.0 mi South 3.5 mph - N/A   Overcast
9:35 AM 63.3 °F 61.9 °F 95% 30.05 in 4.0 mi Calm Calm - N/A   Mostly Cloudy
9:55 AM 63.9 °F 63.0 °F 97% 30.05 in 2.5 mi Calm Calm - N/A   Overcast
10:14 AM 64.8 °F 64.2 °F 98% 30.04 in 1.8 mi Calm Calm - N/A   Overcast
10:35 AM 64.9 °F 64.2 °F 98% 30.04 in 2.0 mi Calm Calm - N/A   Overcast
10:55 AM 65.8 °F 65.1 °F 98% 30.05 in 2.5 mi Calm Calm - N/A Rain Light Rain
11:14 AM 66.7 °F 66.0 °F 98% 30.05 in 3.0 mi Calm Calm - N/A   Overcast
11:35 AM 68.5 °F 66.9 °F 95% 30.04 in 4.0 mi South 5.8 mph - N/A   Mostly Cloudy
11:54 AM 69.4 °F 67.5 °F 93% 30.04 in 4.0 mi South 6.9 mph - N/A   Overcast
12:14 PM 69.6 °F 68.0 °F 95% 30.04 in 4.0 mi SSW 5.8 mph - N/A   Overcast
12:35 PM 70.2 °F 68.0 °F 93% 30.03 in 4.0 mi SSW 5.8 mph - N/A   Overcast
12:54 PM 70.9 °F 68.4 °F 92% 30.03 in 4.0 mi SSW 6.9 mph - N/A   Overcast
1:14 PM 71.2 °F 68.2 °F 90% 30.03 in 4.0 mi South 8.1 mph - N/A   Overcast
1:35 PM 71.6 °F 68.4 °F 89% 30.02 in 5.0 mi SSW 8.1 mph - N/A   Overcast
1:54 PM 71.1 °F 68.5 °F 92% 30.01 in 4.0 mi South 6.9 mph - N/A   Overcast
2:14 PM 70.9 °F 68.7 °F 93% 30.01 in 4.0 mi SW 6.9 mph - N/A Rain Light Rain
2:35 PM 70.9 °F 68.7 °F 93% 30.01 in 5.0 mi SW 6.9 mph - N/A Rain Light Rain
2:54 PM 70.7 °F 68.5 °F 93% 30.01 in 10.0 mi WSW 6.9 mph - N/A Rain Light Rain
3:15 PM 71.4 °F 69.3 °F 93% 30.00 in 10.0 mi WSW 6.9 mph - N/A   Light Drizzle
3:35 PM 73.9 °F 69.6 °F 86% 29.99 in 10.0 mi WSW 4.6 mph - N/A   Mostly Cloudy
3:54 PM 73.6 °F 69.3 °F 86% 29.98 in 10.0 mi SW 4.6 mph - N/A   Overcast
4:15 PM 73.0 °F 70.0 °F 90% 29.96 in 7.0 mi Calm Calm - N/A Rain Light Rain
4:34 PM 74.1 °F 70.2 °F 87% 29.97 in 10.0 mi West 5.8 mph - N/A   Scattered Clouds
4:54 PM 75.4 °F 69.4 °F 82% 29.96 in 10.0 mi SW 5.8 mph - N/A   Clear
5:15 PM 75.2 °F 68.5 °F 80% 29.96 in 10.0 mi SW 6.9 mph - N/A   Clear
5:34 PM 76.5 °F 68.7 °F 77% 29.96 in 10.0 mi SW 3.5 mph - N/A   Clear
5:54 PM 76.5 °F 67.8 °F 75% 29.96 in 10.0 mi SSW 6.9 mph - N/A   Scattered Clouds
6:14 PM 75.6 °F 67.3 °F 75% 29.96 in 10.0 mi SSW 4.6 mph - N/A   Scattered Clouds
6:34 PM 75.0 °F 65.8 °F 73% 29.96 in 10.0 mi SW 4.6 mph - N/A   Clear
6:55 PM 73.9 °F 65.7 °F 75% 29.96 in 10.0 mi SSW 4.6 mph - N/A   Clear
7:14 PM 72.1 °F 65.8 °F 80% 29.96 in 10.0 mi Calm Calm - N/A   Clear
7:34 PM 69.8 °F 65.7 °F 87% 29.96 in 10.0 mi Calm Calm - N/A   Clear
7:55 PM 65.5 °F 64.4 °F 96% 29.97 in 10.0 mi Calm Calm - N/A   Clear
8:14 PM 64.9 °F 64.4 °F 98% 29.98 in 10.0 mi Calm Calm - N/A   Clear
8:34 PM 64.2 °F 64.0 °F 99% 29.98 in 10.0 mi Calm Calm - N/A   Clear
8:55 PM 63.3 °F 63.1 °F 99% 29.99 in 10.0 mi Calm Calm - N/A   Clear
9:14 PM 61.9 °F 61.9 °F 100% 29.99 in 5.0 mi Calm Calm - N/A   Clear
9:35 PM 63.0 °F 62.8 °F 99% 29.99 in 7.0 mi Calm Calm - N/A   Clear
9:55 PM 63.3 °F 63.3 °F 100% 29.99 in 7.0 mi Calm Calm - N/A   Clear
10:14 PM 65.7 °F 65.5 °F 99% 29.99 in 10.0 mi SSE 3.5 mph - N/A   Clear
10:35 PM 67.3 °F 66.0 °F 96% 29.99 in 10.0 mi SSE 3.5 mph - N/A   Clear
10:54 PM 67.5 °F 66.2 °F 96% 29.99 in 10.0 mi South 3.5 mph - N/A   Clear
11:14 PM 68.0 °F 66.2 °F 94% 29.98 in 10.0 mi South 4.6 mph - N/A   Clear
11:35 PM 70.2 °F 66.0 °F 87% 29.99 in 10.0 mi SSW 8.1 mph - N/A   Scattered Clouds